This demonstration page uses our WeatherBlox Daily Observations layout. Learn more.

39.92423, -83.80882

Hourly Observations for May 27, 2015

Temp ( °F °C ) Dew Point ( °F °C ) Humidity (%) Winds ( mph kmh ) Pressure ( in mb ) Visibility ( mi km ) Precip ( " mm )
12:46 am 00:46 Mostly Cloudy with Mist and Fog 66 19 66 19 100 100 SSW 9 15 30.03 1017 6 9.65604 0 0
12:56 am 00:56 Mostly Cloudy 67 19.4 67 19.4 100 100 S 12 19 30.04 1017 7 11.26538 0 0
1:07 am 01:07 Mostly Cloudy with Mist and Fog 66 19 66 19 100 100 S 8 13 30.03 1017 6 9.65604 0 0
1:28 am 01:28 Cloudy 66 19 66 19 100 100 S 10 17 30.03 1017 7 11.26538 0 0
1:56 am 01:56 Cloudy with Mist and Fog 67 19.4 67 19.4 100 100 SSW 12 19 30.04 1017 6 9.65604 0 0
2:22 am 02:22 Cloudy with Mist and Fog 66 19 66 19 100 100 SSW 8 13 30.03 1017 6 9.65604 0 0
2:56 am 02:56 Cloudy with Mist and Fog 67 19.4 67 19.4 100 100 SSW 9 15 30.03 1017 5 8.0467 0 0
3:46 am 03:46 Cloudy with Mist and Fog 66 19 66 19 100 100 SSW 10 17 30.03 1017 5 8.0467 0 0
3:56 am 03:56 Mostly Cloudy with Mist and Fog 67 19.4 67 19.4 100 100 SSW 10 17 30.03 1017 5 8.0467 0 0
4:06 am 04:06 Partly Cloudy with Mist and Fog 66 19 66 19 100 100 SSW 9 15 30.03 1017 5 8.0467 0 0
4:56 am 04:56 Partly Cloudy with Mist and Fog 66 18.8 66 18.8 100 100 SSW 7 11 30.05 1018 4 6.43736 0 0
5:07 am 05:07 Mostly Cloudy with Mist and Fog 66 19 66 19 100 100 S 7 11 30.03 1017 4 6.43736 0 0
5:56 am 05:56 Partly Cloudy with Mist and Fog 66 18.8 66 18.8 100 100 SSW 8 13 30.07 1018 4 6.43736 0 0
6:56 am 06:56 Mostly Cloudy with Mist and Fog 66 18.8 66 18.8 100 100 SSW 7 11 30.08 1019 2.5 4.02335 0 0
7:38 am 07:38 Mostly Cloudy with Mist and Fog 66 19 66 19 100 100 SSW 9 15 30.09 1019 3 4.82802 0 0
7:56 am 07:56 Mostly Cloudy with Mist and Fog 68 20 67 19.4 96 96 SSW 10 17 30.1 1019 4 6.43736 0 0
8:56 am 08:56 Mostly Cloudy with Mist and Fog 70 21.1 67 19.4 90 90 SW 12 19 30.1 1019 4 6.43736 0 0
9:56 am 09:56 Mostly Cloudy with Haze 72 22.2 67 19.4 84 84 SW 10 17 30.12 1020 5 8.0467 0 0
10:56 am 10:56 Mostly Cloudy with Haze 74 23.3 66 18.8 76 76 SSW 10 17 30.11 1020 5 8.0467 0 0
11:56 am 11:56 Mostly Cloudy with Haze 78 25.5 66 18.8 67 67 SW 13 20 30.11 1020 6 9.65604 0 0
12:10 pm 12:10 Mostly Cloudy with Haze 77 25 64 18 65 65 SSW 14 22 30.12 1020 6 9.65604 0 0
12:23 pm 12:23 Mostly Cloudy with Haze 75 24 64 18 69 69 SSW 12 19 30.09 1019 5 8.0467 0 0
12:56 pm 12:56 Hazy 79 26.1 65 18.3 62 62 SW 16 26 30.1 1019 6 9.65604 0 0
1:56 pm 13:56 Hazy 82 27.7 64 17.7 55 55 SSW 16 26 30.09 1019 6 9.65604 0 0
2:56 pm 14:56 Hazy 83 28.3 63 17.2 51 51 SW 20 31 30.07 1018 6 9.65604 0 0
3:56 pm 15:56 Hazy 83 28.3 64 17.7 53 53 S 16 26 30.06 1018 6 9.65604 0 0
4:56 pm 16:56 Hazy 84 28.8 63 17.2 50 50 SSW 16 26 30.04 1017 6 9.65604 0 0
5:56 pm 17:56 Hazy 83 28.3 63 17.2 51 51 SSW 18 30 30.05 1018 6 9.65604 0 0
6:56 pm 18:56 Hazy 81 27.2 63 17.2 54 54 SSW 14 22 30.05 1018 6 9.65604 0 0
7:56 pm 19:56 Hazy 78 25.5 63 17.2 60 60 SSW 14 22 30.05 1018 5 8.0467 0 0
8:56 pm 20:56 Hazy 75 23.8 63 17.2 67 67 SSW 13 20 30.07 1018 6 9.65604 0 0
9:56 pm 21:56 Clear 73 22.7 60 15.5 64 64 SW 12 19 30.09 1019 7 11.26538 0 0
10:56 pm 22:56 Clear 70 21.1 60 15.5 71 71 SSW 9 15 30.11 1020 7 11.26538 0 0
11:56 pm 23:56 Partly Cloudy 69 20.5 61 16.1 76 76 W 7 11 30.14 1021 7 11.26538 0 0

Powered by AerisWeather